Doylestown, PA

4:44 AM EDT on June 26, 2017 (GMT -0400)
Doylestown

Weather History for KDYL - February, 2013

Change the Weather History Date:

Friday, February 15, 2013

  Actual Average (KTTN) Record (KTTN)
Temperature  
Mean Temperature 42 °F -  
Max Temperature 55 °F 40 °F 73 °F (1949)
Min Temperature 28 °F 24 °F -2 °F (1943)
Degree Days  
Heating Degree Days 24    
Moisture  
Dew Point 29 °F    
Average Humidity 68    
Maximum Humidity 96    
Minimum Humidity 38    
Precipitation  
Precipitation 0.06 in - - ()
Sea Level Pressure  
Sea Level Pressure 29.98 in    
Wind  
Wind Speed 4 mph (West)    
Max Wind Speed 10 mph    
Max Gust Speed 17 mph    
Visibility 10 miles    
Events Rain , Snow    
Averages and records for this station are not official NWS values.
T = Trace of Precipitation, MM = Missing Value Source: NWS Daily Summary

Daily Weather History Graph

Daily Weather History Graph

Search for Another Location

Airport or City:

Trip Planner

Search our weather history database for the weather conditions in past years. The results will help you decide how hot, cold, wet, or windy it might be!

Date:

Astronomy

Feb. 15, 2013 Rise Set
Actual Time 6:53 AM EST 5:36 PM EST
Civil Twilight 6:25 AM EST 6:04 PM EST
Nautical Twilight 5:53 AM EST 6:35 PM EST
Astronomical Twilight 5:22 AM EST 7:07 PM EST
Moon 9:27 AM EST (2/15) 11:35 PM EST (2/15)
Length of Visible Light 11h 38m
Length of Day
10h 42m
Waxing Crescent, 30% of the Moon is Illuminated
Feb 15
Waxing Crescent
Feb 17
First Quarter
Feb 25
Full
Mar 4
Last Quarter
Mar 11
New

Hourly Weather History & Observations

Time (EST) Temp. Windchill Dew Point Humidity Pressure Visibility Wind Dir Wind Speed Gust Speed Precip Events Conditions
12:54 AM 33.1 °F 30.0 °F 28.0 °F 82% 30.01 in 10.0 mi SSW 3.5 mph - N/A   Overcast
1:54 AM 30.0 °F - 26.1 °F 85% 30.00 in 10.0 mi Calm Calm - N/A   Clear
2:54 AM 30.9 °F 26.2 °F 28.0 °F 89% 29.99 in 10.0 mi South 4.6 mph - N/A   Clear
3:54 AM 30.9 °F - 28.0 °F 89% 29.99 in 10.0 mi Calm Calm - N/A   Partly Cloudy
4:54 AM 32.0 °F - 28.0 °F 85% 29.99 in 10.0 mi Calm Calm - N/A   Clear
5:54 AM 28.0 °F - 25.0 °F 88% 29.99 in 9.0 mi Calm Calm - N/A   Clear
6:54 AM 30.0 °F 26.5 °F 28.0 °F 92% 30.00 in 8.0 mi SSW 3.5 mph - N/A   Clear
7:54 AM 32.0 °F 28.7 °F 28.9 °F 88% 30.02 in 8.0 mi SSW 3.5 mph - N/A   Partly Cloudy
8:54 AM 37.0 °F 32.4 °F 32.0 °F 82% 30.02 in 10.0 mi WSW 5.8 mph - N/A   Clear
9:54 AM 42.1 °F 40.2 °F 32.0 °F 67% 30.02 in 10.0 mi Variable 3.5 mph - N/A   Clear
10:54 AM 46.9 °F - 30.9 °F 54% 30.02 in 10.0 mi Variable 5.8 mph - N/A   Clear
11:54 AM 50.0 °F - 30.9 °F 48% 29.99 in 10.0 mi SW 5.8 mph - N/A   Clear
12:54 PM 53.1 °F - 30.0 °F 41% 29.96 in 10.0 mi WSW 10.4 mph 17.3 mph N/A   Clear
1:54 PM 54.0 °F - 30.0 °F 40% 29.94 in 10.0 mi SW 10.4 mph - N/A   Partly Cloudy
2:54 PM 55.0 °F - 30.0 °F 38% 29.93 in 10.0 mi West 5.8 mph - N/A   Partly Cloudy
3:54 PM 53.1 °F - 30.0 °F 41% 29.93 in 10.0 mi West 6.9 mph - N/A   Partly Cloudy
4:54 PM 51.1 °F - 28.9 °F 43% 29.93 in 10.0 mi NW 4.6 mph - N/A   Mostly Cloudy
5:54 PM 46.0 °F 44.8 °F 28.9 °F 51% 29.93 in 10.0 mi North 3.5 mph - N/A   Partly Cloudy
6:54 PM 44.1 °F - 26.1 °F 49% 29.94 in 10.0 mi Calm Calm - N/A   Partly Cloudy
7:54 PM 44.1 °F 42.5 °F 26.1 °F 49% 29.94 in 10.0 mi NNW 3.5 mph - N/A   Overcast
8:54 PM 43.0 °F 38.8 °F 24.1 °F 47% 29.95 in 10.0 mi NW 6.9 mph - N/A   Overcast
9:54 PM 39.9 °F 33.9 °F 30.9 °F 70% 29.99 in 10.0 mi NW 9.2 mph - 0.00 in Rain Light Rain
10:52 PM 35.6 °F 29.2 °F 33.8 °F 93% 29.98 in 9.0 mi NW 8.1 mph - 0.01 in Rain Light Rain
10:54 PM 35.1 °F 29.3 °F 33.1 °F 92% 30.00 in 9.0 mi NW 6.9 mph - 0.01 in Rain Light Rain
11:54 PM 33.1 °F 30.0 °F 32.0 °F 96% 29.99 in 5.0 mi NW 3.5 mph - 0.05 in Snow Light Snow